Weather History for KHPN - November, 2014

Change the Weather History Date:

Wednesday, November 19, 2014

  Actual Average Record
Temperature  
Mean Temperature 24 °F -  
Max Temperature 30 °F 48 °F 65 °F (1991)
Min Temperature 19 °F 34 °F 19 °F (2014)
Degree Days  
Heating Degree Days 40    
Moisture  
Dew Point 6 °F    
Average Humidity 42    
Maximum Humidity 50    
Minimum Humidity 29    
Precipitation  
Precipitation 0.00 in - - ()
Sea Level Pressure  
Sea Level Pressure 30.17 in    
Wind  
Wind Speed 10 mph (WSW)    
Max Wind Speed 15 mph    
Max Gust Speed 23 mph    
Visibility 10 miles    
Events      
Averages and records for this station are not official NWS values.
T = Trace of Precipitation, MM = Missing Value Source: NWS Daily Summary

Daily Weather History Graph

Daily Weather History Graph

Search for Another Location

Airport or City:

Trip Planner

Search our weather history database for the weather conditions in past years. The results will help you decide how hot, cold, wet, or windy it might be!

Date:

Astronomy

Nov. 19, 2014 Rise Set
Actual Time 6:47 AM EST 4:32 PM EST
Civil Twilight 6:17 AM EST 5:02 PM EST
Nautical Twilight 5:43 AM EST 5:36 PM EST
Astronomical Twilight 5:11 AM EST 6:08 PM EST
Moon 3:38 AM EST (11/19) 3:00 PM EST (11/19)
Length of Visible Light 10h 45m
Length of Day
9h 45m
Waning Crescent, 9% of the Moon is Illuminated
Nov 19
Waning Crescent
Nov 22
New
Nov 29
First Quarter
Dec 6
Full
Dec 14
Last Quarter

Hourly Weather History & Observations

Time (EST) Temp. Windchill Dew Point Humidity Pressure Visibility Wind Dir Wind Speed Gust Speed Precip Events Conditions
12:56 AM 21.0 °F 8.6 °F 3.0 °F 46% 30.10 in 10.0 mi West 12.7 mph 16.1 mph N/A   Clear
1:56 AM 21.0 °F 10.6 °F 3.0 °F 46% 30.12 in 10.0 mi West 9.2 mph 17.3 mph N/A   Clear
2:56 AM 21.0 °F 8.6 °F 3.0 °F 46% 30.13 in 10.0 mi West 12.7 mph 19.6 mph N/A   Clear
3:56 AM 21.0 °F 9.9 °F 3.0 °F 46% 30.14 in 10.0 mi West 10.4 mph - N/A   Clear
4:56 AM 19.9 °F 7.3 °F 3.0 °F 48% 30.17 in 10.0 mi West 12.7 mph 20.7 mph N/A   Clear
5:56 AM 19.9 °F 6.2 °F 3.0 °F 48% 30.18 in 10.0 mi West 15.0 mph 23.0 mph N/A   Clear
6:56 AM 19.9 °F 11.1 °F 3.9 °F 50% 30.22 in 10.0 mi West 6.9 mph - N/A   Clear
7:56 AM 21.0 °F 9.3 °F 3.9 °F 48% 30.25 in 10.0 mi West 11.5 mph - N/A   Clear
8:56 AM 23.0 °F 11.7 °F 5.0 °F 46% 30.27 in 10.0 mi WNW 11.5 mph 19.6 mph N/A   Clear
9:56 AM 25.0 °F 13.6 °F 6.1 °F 45% 30.25 in 10.0 mi West 12.7 mph - N/A   Clear
10:56 AM 27.0 °F 17.3 °F 6.1 °F 41% 30.24 in 10.0 mi WNW 10.4 mph - 0.00 in   Clear
11:56 AM 28.9 °F 19.2 °F 7.0 °F 40% 30.21 in 10.0 mi NW 11.5 mph 17.3 mph N/A   Clear
12:56 PM 30.0 °F 24.1 °F 6.1 °F 36% 30.19 in 10.0 mi Variable 5.8 mph - N/A   Clear
1:56 PM 30.9 °F 25.2 °F 6.1 °F 35% 30.18 in 10.0 mi WSW 5.8 mph - N/A   Clear
2:56 PM 30.9 °F 23.5 °F 1.9 °F 29% 30.17 in 10.0 mi SSW 8.1 mph 16.1 mph N/A   Clear
3:56 PM 30.0 °F 23.2 °F 1.9 °F 30% 30.17 in 10.0 mi Variable 6.9 mph - N/A   Clear
4:56 PM 28.0 °F 24.2 °F 3.0 °F 34% 30.16 in 10.0 mi SSW 3.5 mph - N/A   Clear
5:56 PM 27.0 °F 23.0 °F 6.1 °F 41% 30.15 in 10.0 mi South 3.5 mph - N/A   Clear
6:56 PM 27.0 °F - 6.1 °F 41% 30.14 in 10.0 mi Calm Calm - N/A   Clear
7:56 PM 28.0 °F 22.8 °F 8.1 °F 43% 30.13 in 10.0 mi South 4.6 mph - N/A   Mostly Cloudy
8:56 PM 30.0 °F 21.7 °F 9.0 °F 41% 30.14 in 10.0 mi WSW 9.2 mph - N/A   Overcast
9:56 PM 30.0 °F 25.2 °F 10.9 °F 45% 30.13 in 10.0 mi SSW 4.6 mph - N/A   Overcast
10:56 PM 30.0 °F 24.1 °F 10.9 °F 45% 30.10 in 10.0 mi Variable 5.8 mph - N/A   Mostly Cloudy
11:56 PM 30.9 °F 27.5 °F 12.9 °F 47% 30.06 in 10.0 mi South 3.5 mph - N/A   Mostly Cloudy